Regional Weather Roundup
Issued by NWS

Home | Current Version | Previous Version | Graphics & Text | Print | Product List | Glossary On
Versions: 1 2 3 4 5 6 7 8 9 10 11 12 13 14 15 16 17 18 19 20 21 22 23 24 25 26 27 28 29 30 31 32 33 34 35 36 37 38 39 40 41 42 43 44 45 46 47 48 49 50
000
ASUS43 KDMX 280207
RWRIA

WEATHER ROUNDUP FOR IOWA
NATIONAL WEATHER SERVICE DES MOINES IA
800 PM CST THU NOV 27 2014

NOTE: "FAIR" INDICATES FEW OR NO CLOUDS BELOW 12,000 FEET WITH NO
SIGNIFICANT WEATHER AND/OR OBSTRUCTIONS TO VISIBILITY.

* - THESE STATIONS ARE NOT NWS STATIONS...THUS NOT UNDER NWS
QUALITY CONTROL.  THEY ALSO DO NOT REPORT WEATHER SUCH
AS PRECIPITATION OR FOG.

IAZ001>003-012>014-020>022-031>034-043>046-280300-
   NORTHWEST IOWA

CITY           SKY/WX    TMP DP  RH WIND       PRES   REMARKS
CARROLL *      CLOUDY    12   5  73 SE13      30.29F WCI  -3
CHEROKEE *     CLOUDY    12   7  79 SE12      30.26S WCI  -2
DENISON *      PTCLDY    16   9  73 SE12G18   30.24F WCI   3
LE MARS *      MOCLDY    16   9  73 SE8       30.24F WCI   5
ORANGE CITY *  MOCLDY    14   7  73 SE9       30.21F WCI   2
SHELDON *      CLOUDY    10   3  72 SE13      30.22F WCI  -5
SIOUX CITY     MOCLDY    19   9  65 SE9       30.23F WCI   8
SPENCER        CLOUDY     8   1  73 SE12      30.27S WCI  -7
STORM LAKE *   CLOUDY    10   3  72 S15       30.26R WCI  -6
$$

IAZ055>058-069>071-079>083-090>094-280300-
   SOUTHWEST IOWA

CITY           SKY/WX    TMP DP  RH WIND       PRES   REMARKS
ATLANTIC *     CLOUDY    19  10  68 SE7       30.29F WCI  10
AUDUBON *      CLEAR     16   7  67 S9        30.30F WCI   4
CLARINDA *     CLEAR     23  16  74 SE7       30.33F WCI  15
COUNCIL BLFS * PTCLDY    19  14  79 SE14      30.24F WCI   6
CRESTON *      CLEAR     18  10  73 SE12      30.32F WCI   5
HARLAN  *      MOCLDY    18  10  73 SE9       30.30F WCI   6
LAMONI         MOCLDY    20  12  71 SE6       30.33F WCI  12
RED OAK *      CLOUDY    23  14  68 SE7G13    30.30F WCI  15
SHENANDOAH *   CLEAR     23  16  74 SE10      30.30F WCI  12
$$

IAZ047>049-059>061-072>074-084-280300-
   CENTRAL IOWA

CITY           SKY/WX    TMP DP  RH WIND       PRES   REMARKS
AMES           CLOUDY     9   0  67 SE7       30.37F WCI  -2
ANKENY *       CLOUDY    12   1  62 SE6       30.38S WCI   3
CHARITON *     CLOUDY    18   7  62 SE8       30.36F WCI   7
DES MOINES     FLURRIES  14   4  64 E7        30.37F WCI   4
GRINNELL*      CLOUDY     7   3  85 CALM      30.38S
KNOXVILLE *    CLOUDY    12   3  67 SE5       30.38R WCI   4
MARSHALLTOWN   CLOUDY     8   1  73 SE6       30.38S WCI  -2
PELLA *        MOCLDY    10   3  72 SE3       30.41S
PERRY *        CLOUDY    14   7  73 SE10      30.33F WCI   1
$$

IAZ004>006-015-016-023>025-035-036-280300-
   NORTH CENTRAL IOWA

CITY           SKY/WX    TMP DP  RH WIND       PRES   REMARKS
ALGONA *       CLOUDY     5  -2  72 SE12      30.31F WCI -11
CLARION *      CLOUDY     7   1  78 SE12      30.33F WCI  -9
ESTHERVILLE    CLOUDY     4  -2  76 SE14      30.27F WCI -14
FORT DODGE *   CLOUDY     9  -2  61 SE6       30.31F WCI  -1
MASON CITY     MIX PCPN   5  -1  76 SE9       30.33F WCI  -9
FOREST CITY *  CLOUDY     9   1  72 SE9       30.30F WCI  -5
IOWA FALLS *   CLOUDY     7   1  78 SE8       30.35F WCI  -6
$$

IAZ007>011-017>019-026>030-037>042-050>054-066-280300-
   NORTHEAST IOWA

CITY           SKY/WX    TMP DP  RH WIND       PRES   REMARKS
CEDAR RAPIDS   PTCLDY     8   3  80 NW3       30.39F
CHARLES CITY * CLOUDY     7  -2  66 S6        30.36S WCI  -3
CLINTON *      PTCLDY     5   0  78 W7        30.44S WCI  -7
DECORAH *      CLOUDY     7  -2  66 CALM      30.36F
DUBUQUE        MOCLDY     7   0  73 SW5       30.39R WCI  -2
MONTICELLO *   PTCLDY     9   3  78 CALM      30.40F
OELWEIN *      CLOUDY     7   0  72 CALM      30.37F
WATERLOO       MOCLDY     7   1  76 CALM      30.39F
$$

IAZ064-065-067-068-078-280300-
   EAST CENTRAL IOWA

CITY           SKY/WX    TMP DP  RH WIND       PRES   REMARKS
DAVENPORT      PTCLDY     7   1  76 W5        30.42F WCI  -2
IOWA CITY      PTCLDY    11   5  77 N5        30.43F WCI   3
MT. PLEASANT * PTCLDY     1  -2  85 SW5       30.43R WCI  -8
MUSCATINE *    CLEAR      9   3  78 CALM      30.44F
QUAD CITIES    PTCLDY    10   3  73 CALM      30.42F
$$

IAZ062-063-075>077-085>089-095>099-280300-
   SOUTHEAST IOWA

CITY           SKY/WX    TMP DP  RH WIND       PRES   REMARKS
BURLINGTON     PTCLDY     9   4  80 CALM      30.40F
FAIRFIELD *    CLOUDY     9   1  72 CALM      30.43S
FORT MADISON * CLEAR      9   3  78 SW5       30.43R WCI   0
KEOKUK *       PTCLDY    12   7  79 CALM      30.42S
OSKALOOSA *    CLOUDY     9   3  78 SE6       30.41S WCI  -1
CENTERVILLE *  PTCLDY    18   9  68 SE7       30.39S WCI   8
OTTUMWA        CLOUDY    11   0  61 SE6       30.40F WCI   1
WASHINGTON *   CLEAR      5   5 100 W5        30.42R WCI  -4
$$

ABBREVIATIONS USED IN REMARKS
   TC - TEMPERATURES IN CELSIUS
  WCI - WIND CHILL INDEX
   HX - HEAT INDEX
  VSB - VISIBILITY
$$



USA.gov is the U.S. government's official web portal to all federal, state and local government web resources and services.